Kinloss, United Kingdom

11:18 AM BST on May 21, 2018 (GMT +0100)
Kinloss Air Base

Weather History for EGQK - May, 2013

Change the Weather History Date:

Wednesday, May 8, 2013

  Actual Average Record
Temperature  
Mean Temperature 52 °F -  
Max Temperature 64 °F 58 °F 75 °F (2000)
Min Temperature 41 °F 44 °F 31 °F (2015)
Degree Days  
Heating Degree Days 12    
Growing Degree Days 2 (Base 50)    
Moisture  
Dew Point 44 °F    
Average Humidity 64    
Maximum Humidity 82    
Minimum Humidity 44    
Precipitation  
Precipitation 0.00 in 0.06 in - ()
Sea Level Pressure  
Sea Level Pressure 29.66 in    
Wind  
Wind Speed 9 mph ()    
Max Wind Speed 22 mph    
Max Gust Speed -    
Visibility 8.3 miles    
Events      
Averages and records for this station are not official NWS values.
T = Trace of Precipitation, MM = Missing Value Source: Averaged Metar Reports

Daily Weather History Graph

Daily Weather History Graph

Search for Another Location

Airport or City:

Astronomy

May. 08, 2013 Rise Set
Actual Time 5:06 AM BST 9:16 PM BST
Civil Twilight 4:16 AM BST 10:07 PM BST
Nautical Twilight 2:58 AM BST 11:27 PM BST
Astronomical Twilight 1:43 AM BST 12:38 AM BST
Moon 4:28 AM BST (5/8) 7:46 PM BST (5/8)
Length of Visible Light 17h 51m
Length of Day
16h 09m
Waning Crescent, 2% of the Moon is Illuminated
May 8
Waning Crescent
May 10
New
May 18
First Quarter
May 25
Full
May 31
Last Quarter

Hourly Weather History & Observations

Time (BST) Temp. Dew Point Humidity Pressure Visibility Wind Dir Wind Speed Gust Speed Precip Events Conditions
12:50 AM 54 °F 38 °F 44% 29.90 in 28 mi SE 10.4 mph - -   Scattered Clouds
12:50 AM 53.6 °F 39.2 °F 58% 29.89 in 6.2 mi SE 10.4 mph - N/A   Partly Cloudy
1:50 AM 51.8 °F 39.2 °F 62% 29.86 in 6.2 mi NE 4.6 mph - N/A   Mostly Cloudy
2:50 AM 50.0 °F 39.2 °F 66% 29.86 in 6.2 mi NE 8.1 mph - N/A   Overcast
3:50 AM 51 °F 38 °F 51% 29.83 in 28 mi ENE 3.5 mph - -   Scattered Clouds
3:50 AM 50.0 °F 39.2 °F 66% 29.83 in 6.2 mi ENE 3.5 mph - N/A   Partly Cloudy
4:50 AM 48.2 °F 37.4 °F 66% 29.80 in 6.2 mi ESE 6.9 mph - N/A   Partly Cloudy
5:50 AM 50.0 °F 39.2 °F 66% 29.77 in 6.2 mi East 4.6 mph - N/A   Mostly Cloudy
6:50 AM 49 °F 42 °F 68% 29.77 in 13 mi Calm Calm - -  
6:50 AM 48.2 °F 41.0 °F 76% 29.77 in 6.2 mi Calm Calm - N/A   Overcast
7:50 AM 53.6 °F 44.6 °F 72% 29.74 in 6.2 mi NE 5.8 mph - N/A   Overcast
8:50 AM 57.2 °F 46.4 °F 67% 29.71 in 6.2 mi North 8.1 mph - N/A   Mostly Cloudy
9:50 AM 64 °F 48 °F 45% 29.70 in 14 mi ESE 15.0 mph - -  
9:50 AM 64.4 °F 48.2 °F 56% 29.68 in 6.2 mi ESE 15.0 mph - N/A   Unknown
10:50 AM 64.4 °F 46.4 °F 52% 29.65 in 6.2 mi ESE 21.9 mph - N/A   Unknown
11:50 AM 62.6 °F 48.2 °F 59% 29.65 in 6.2 mi East 16.1 mph - N/A   Unknown
12:50 PM 62 °F 47 °F 47% 29.63 in 19 mi ESE 19.6 mph - -   Partly Cloudy
12:50 PM 62.6 °F 46.4 °F 55% 29.62 in 6.2 mi ESE 19.6 mph - N/A   Scattered Clouds
1:50 PM 60.8 °F 46.4 °F 59% 29.59 in 6.2 mi ESE 18.4 mph - N/A   Mostly Cloudy
2:50 PM 59.0 °F 46.4 °F 63% 29.59 in 6.2 mi ESE 18.4 mph - N/A   Mostly Cloudy
3:50 PM 59 °F 46 °F 52% 29.57 in 19 mi ESE 13.8 mph - -   Partly Cloudy
3:50 PM 59.0 °F 46.4 °F 63% 29.56 in 6.2 mi ESE 13.8 mph - N/A   Mostly Cloudy
4:50 PM 57.2 °F 44.6 °F 63% 29.56 in 6.2 mi ESE 20.7 mph - N/A   Mostly Cloudy
5:50 PM 57.2 °F 46.4 °F 67% 29.53 in 6.2 mi East 13.8 mph - N/A   Overcast
6:50 PM 57 °F 45 °F 54% 29.52 in 19 mi ESE 16.1 mph - -   Partly Cloudy
6:50 PM 57.2 °F 44.6 °F 63% 29.50 in 6.2 mi ESE 16.1 mph - N/A   Mostly Cloudy
7:50 PM 55.4 °F 46.4 °F 72% 29.50 in 6.2 mi East 12.7 mph - N/A   Mostly Cloudy
8:50 PM 51.8 °F 46.4 °F 82% 29.50 in 6.2 mi East 16.1 mph - N/A   Mostly Cloudy
9:50 PM 50 °F 45 °F 78% 29.51 in 15 mi ENE 8.1 mph - -   Scattered Clouds
9:50 PM 50.0 °F 44.6 °F 82% 29.50 in 6.2 mi ENE 8.1 mph - N/A   Mostly Cloudy
10:50 PM 50.0 °F 44.6 °F 82% 29.47 in 6.2 mi ESE 13.8 mph - N/A   Overcast
11:50 PM 50.0 °F 44.6 °F 82% 29.47 in 6.2 mi East 9.2 mph - N/A   Mostly Cloudy